Dades meteomassalio
Diari Summary for Marc 16, 2017 Units:  Metric    English   Both
« Previous Day
Next Day »
Diari Semanal Mensual Anual Personalitzat
  Maxima: Minima: Mijana:
Temperatura: -17.8 °C -16.4 °C -11.4 °C
Rosada: -17.8 °C -17.2 °C -15.6 °C
Humitat: Humidity % 27 % 66 %
Velocitat del vent: 0 km/h 0 km/h 7.6 km/h
Racha vent: 0 km/h - -
Vent:- - East
Pressio: 0 hPa 34591.4 hPa -
Pluja: 7.62 mm    
Historical Graphs
 
 
Tabular Data for Marc 16, 2017
Time Temperature Dew Point Pressure Wind Wind Speed Wind Gust Humidity Rainfall Rate (Hourly) solar Conditions
-17.8 °C -17.8 °C 0 hPa Calm     Humidity % 0 mm SolarRadiationWatts/m^2 W/m2 Conditions
00:03 -13.8 °C -14.6 °C 34760.7 hPa Calm     90 % 0 mm 0.0 W/m2 RA
00:08 -13.8 °C -14.7 °C 34760.7 hPa Calm     90 % 0 mm 0.0 W/m2 CLR
00:13 -13.8 °C -14.6 °C 34760.7 hPa Calm     91 % 0 mm 0.0 W/m2 CLR
00:18 -13.8 °C -14.6 °C 34760.7 hPa Calm     91 % 0 mm 0.0 W/m2 CLR
00:23 -13.9 °C -14.7 °C 34760.7 hPa Calm     91 % 0 mm 0.0 W/m2 CLR
00:28 -13.9 °C -14.7 °C 34760.7 hPa Calm     91 % 0 mm 0.0 W/m2 CLR
00:33 -14 °C -14.8 °C 34760.7 hPa Calm     91 % 0 mm 0.0 W/m2 CLR
00:38 -14.1 °C -14.8 °C 34760.7 hPa Calm     91 % 0 mm 0.0 W/m2 CLR
00:43 -14.1 °C -14.9 °C 34760.7 hPa Calm     91 % 0 mm 0.0 W/m2 CLR
00:48 -14.2 °C -14.9 °C 34760.7 hPa Calm     91 % 0 mm 0.0 W/m2 CLR
00:53 -14.3 °C -15.1 °C 34760.7 hPa Calm     91 % 0 mm 0.0 W/m2 CLR
00:58 -14.3 °C -15.1 °C 34750.5 hPa Calm     91 % 0 mm 0.0 W/m2 CLR
01:03 -14.3 °C -15.1 °C 34750.5 hPa Calm     91 % 0 mm 0.0 W/m2 CLR
01:08 -14.4 °C -15.1 °C 34750.5 hPa Calm     91 % 0 mm 0.0 W/m2 CLR
01:13 -14.4 °C -15.2 °C 34750.5 hPa Calm     91 % 0 mm 0.0 W/m2 CLR
01:18 -14.4 °C -15.2 °C 34750.5 hPa Calm     91 % 0 mm 0.0 W/m2 CLR
01:23 -14.5 °C -15.2 °C 34750.5 hPa Calm     91 % 0 mm 0.0 W/m2 CLR
01:28 -14.6 °C -15.3 °C 34750.5 hPa Calm     91 % 0 mm 0.0 W/m2 CLR
01:33 -14.6 °C -15.3 °C 34750.5 hPa Calm     91 % 0 mm 0.0 W/m2 CLR
01:38 -14.6 °C -15.3 °C 34750.5 hPa Calm     92 % 0 mm 0.0 W/m2 CLR
01:43 -14.7 °C -15.3 °C 34750.5 hPa Calm     92 % 0 mm 0.0 W/m2 CLR
01:48 -14.7 °C -15.3 °C 34750.5 hPa Calm     92 % 0 mm 0.0 W/m2 CLR
01:53 -14.7 °C -15.4 °C 34750.5 hPa Calm     92 % 0 mm 0.0 W/m2 CLR
01:58 -14.7 °C -15.4 °C 34750.5 hPa Calm     92 % 0 mm 0.0 W/m2 CLR
02:03 -14.8 °C -15.4 °C 34750.5 hPa Calm     92 % 0 mm 0.0 W/m2 CLR
02:08 -14.8 °C -15.5 °C 34740.4 hPa Calm     92 % 0 mm 0.0 W/m2 CLR
02:13 -14.9 °C -15.5 °C 34750.5 hPa Calm     92 % 0 mm 0.0 W/m2 CLR
02:18 -14.9 °C -15.5 °C 34750.5 hPa Calm     92 % 0 mm 0.0 W/m2 CLR
02:23 -14.9 °C -15.6 °C 34740.4 hPa Calm     92 % 0 mm 0.0 W/m2 CLR
02:28 -14.9 °C -15.6 °C 34740.4 hPa Calm     92 % 0 mm 0.0 W/m2 CLR
02:33 -15 °C -15.7 °C 34750.5 hPa Calm     92 % 0 mm 0.0 W/m2 CLR
02:38 -15.1 °C -15.7 °C 34750.5 hPa Calm     92 % 0 mm 0.0 W/m2 CLR
02:43 -15.1 °C -15.7 °C 34750.5 hPa Calm     92 % 0 mm 0.0 W/m2 CLR
02:48 -15.1 °C -15.7 °C 34740.4 hPa Calm     92 % 0 mm 0.0 W/m2 CLR
02:53 -15.1 °C -15.8 °C 34750.5 hPa Calm     92 % 0 mm 0.0 W/m2 CLR
02:58 -15.2 °C -15.8 °C 34740.4 hPa Calm     92 % 0 mm 0.0 W/m2 CLR
03:03 -15.2 °C -15.9 °C 34740.4 hPa Calm     92 % 0 mm 0.0 W/m2 CLR
03:08 -15.2 °C -15.9 °C 34740.4 hPa Calm     92 % 0 mm 0.0 W/m2 CLR
03:13 -15.2 °C -15.9 °C 34740.4 hPa Calm     92 % 0 mm 0.0 W/m2 CLR
03:18 -15.3 °C -15.9 °C 34740.4 hPa Calm     92 % 0 mm 0.0 W/m2 CLR
03:23 -15.4 °C -16 °C 34740.4 hPa Calm     92 % 0 mm 0.0 W/m2 CLR
03:28 -15.4 °C -16.1 °C 34740.4 hPa Calm     92 % 0 mm 0.0 W/m2 CLR
03:33 -15.4 °C -16.1 °C 34740.4 hPa Calm     92 % 0 mm 0.0 W/m2 CLR
03:38 -15.5 °C -16.2 °C 34740.4 hPa Calm     92 % 0 mm 0.0 W/m2 CLR
03:43 -15.5 °C -16.1 °C 34740.4 hPa Calm     93 % 0 mm 0.0 W/m2 CLR
03:48 -15.5 °C -16.1 °C 34740.4 hPa Calm     93 % 0 mm 0.0 W/m2 CLR
03:53 -15.6 °C -16.2 °C 34726.8 hPa Calm     93 % 0 mm 0.0 W/m2 CLR
03:58 -15.6 °C -16.2 °C 34726.8 hPa Calm     93 % 0 mm 0.0 W/m2 CLR
04:04 -15.6 °C -16.3 °C 34726.8 hPa Calm     92 % 0 mm 0.0 W/m2 CLR
04:09 -15.7 °C -16.3 °C 34726.8 hPa Calm     92 % 0 mm 0.0 W/m2 CLR
04:14 -15.7 °C -16.3 °C 34726.8 hPa Calm     93 % 0 mm 0.0 W/m2 CLR
04:19 -15.7 °C -16.3 °C 34726.8 hPa Calm     93 % 0 mm 0.0 W/m2 CLR
04:24 -15.7 °C -16.3 °C 34726.8 hPa Calm     93 % 0 mm 0.0 W/m2 CLR
04:29 -15.7 °C -16.3 °C 34726.8 hPa Calm     93 % 0 mm 0.0 W/m2 CLR
04:34 -15.8 °C -16.3 °C 34726.8 hPa Calm     93 % 0 mm 0.0 W/m2 CLR
04:39 -15.8 °C -16.3 °C 34726.8 hPa Calm     93 % 0 mm 0.0 W/m2 CLR
04:44 -15.8 °C -16.3 °C 34726.8 hPa Calm     93 % 0 mm 0.0 W/m2 CLR
04:49 -15.8 °C -16.3 °C 34726.8 hPa Calm     93 % 0 mm 0.0 W/m2 CLR
04:54 -15.9 °C -16.4 °C 34726.8 hPa Calm     93 % 0 mm 0.0 W/m2 CLR
04:59 -15.9 °C -16.5 °C 34726.8 hPa Calm     93 % 0 mm 0.0 W/m2 CLR
05:04 -15.9 °C -16.5 °C 34726.8 hPa Calm     93 % 0 mm 0.0 W/m2 CLR
05:09 -15.9 °C -16.5 °C 34726.8 hPa Calm     93 % 0 mm 0.0 W/m2 CLR
05:14 -15.9 °C -16.5 °C 34726.8 hPa Calm     93 % 0 mm 0.0 W/m2 CLR
05:19 -15.9 °C -16.5 °C 34726.8 hPa Calm     93 % 0 mm 0.0 W/m2 CLR
05:24 -15.9 °C -16.5 °C 34726.8 hPa Calm     93 % 0 mm 0.0 W/m2 CLR
05:29 -16 °C -16.6 °C 34726.8 hPa Calm     93 % 0 mm 0.0 W/m2 CLR
05:34 -16 °C -16.6 °C 34726.8 hPa Calm     93 % 0 mm 0.0 W/m2 CLR
05:39 -16 °C -16.6 °C 34726.8 hPa Calm     93 % 0 mm 0.0 W/m2 CLR
05:44 -16.1 °C -16.6 °C 34726.8 hPa Calm     93 % 0 mm 0.0 W/m2 CLR
05:49 -16.1 °C -16.6 °C 34740.4 hPa Calm     93 % 0 mm 0.0 W/m2 CLR
05:54 -16.1 °C -16.6 °C 34726.8 hPa Calm     93 % 0 mm 0.0 W/m2 CLR
05:59 -16 °C -16.6 °C 34726.8 hPa Calm     93 % 0 mm 0.0 W/m2 CLR
06:04 -16 °C -16.6 °C 34726.8 hPa Calm     93 % 0 mm 0.0 W/m2 CLR
06:09 -16 °C -16.6 °C 34740.4 hPa Calm     93 % 0 mm 0.0 W/m2 CLR
06:14 -16.1 °C -16.6 °C 34740.4 hPa Calm     93 % 0 mm 0.0 W/m2 CLR
06:19 -16.1 °C -16.6 °C 34740.4 hPa Calm     93 % 7.62 mm 0.0 W/m2 RA
06:24 -16.1 °C -16.7 °C 34740.4 hPa Calm     93 % 7.62 mm 0.0 W/m2 CLR
06:29 -16.2 °C -16.7 °C 34740.4 hPa Calm     93 % 7.62 mm 0.0 W/m2 CLR
06:34 -16.2 °C -16.7 °C 34740.4 hPa Calm     93 % 7.62 mm 0.0 W/m2 CLR
06:39 -16.2 °C -16.8 °C 34740.4 hPa Calm     93 % 7.62 mm 0.0 W/m2 CLR
06:44 -16.3 °C -16.8 °C 34740.4 hPa Calm     93 % 7.62 mm 0.0 W/m2 CLR
06:49 -16.3 °C -16.8 °C 34740.4 hPa Calm     93 % 7.62 mm 0.0 W/m2 CLR
06:54 -16.3 °C -16.9 °C 34740.4 hPa Calm     93 % 7.62 mm 0.0 W/m2 CLR
06:59 -16.3 °C -16.9 °C 34740.4 hPa Calm     93 % 7.62 mm 0.0 W/m2 CLR
07:04 -16.3 °C -16.9 °C 34740.4 hPa Calm     93 % 7.62 mm 0.0 W/m2 OVC
07:09 -16.4 °C -16.9 °C 34740.4 hPa Calm     93 % 7.62 mm 5.0 W/m2 OVC
07:14 -16.4 °C -16.9 °C 34740.4 hPa Calm     93 % 7.62 mm 7.0 W/m2 BKN
07:19 -16.4 °C -16.9 °C 34750.5 hPa Calm     93 % 0 mm 9.0 W/m2 BKN
07:24 -16.4 °C -16.9 °C 34740.4 hPa Calm     93 % 0 mm 12.0 W/m2 BKN
07:29 -16.4 °C -16.9 °C 34750.5 hPa Calm     93 % 0 mm 14.0 W/m2 BKN
07:34 -16.4 °C -16.9 °C 34750.5 hPa Calm     93 % 0 mm 21.0 W/m2 BKN
07:39 -16.3 °C -16.9 °C 34750.5 hPa Calm     93 % 0 mm 32.0 W/m2 BKN
07:44 -16.3 °C -16.8 °C 34750.5 hPa Calm     93 % 0 mm 42.0 W/m2 BKN
07:49 -16.2 °C -16.7 °C 34750.5 hPa Calm     93 % 0 mm 60.0 W/m2 SCT
07:54 -16 °C -16.6 °C 34750.5 hPa Calm     93 % 0 mm 65.0 W/m2 SCT
07:59 -15.8 °C -16.4 °C 34750.5 hPa Calm     93 % 0 mm 88.0 W/m2 CLR
08:04 -15.7 °C -16.3 °C 34750.5 hPa Calm     93 % 0 mm 86.0 W/m2 CLR
08:09 -15.6 °C -16.2 °C 34750.5 hPa Calm     93 % 0 mm 118.0 W/m2 CLR
08:14 -15.4 °C -15.9 °C 34750.5 hPa Calm     93 % 0 mm 114.0 W/m2 CLR
08:19 -15.3 °C -15.9 °C 34750.5 hPa Calm     93 % 0 mm 146.0 W/m2 CLR
08:24 -15.2 °C -15.8 °C 34750.5 hPa Calm     93 % 0 mm 171.0 W/m2 CLR
08:29 -15 °C -15.6 °C 34750.5 hPa Calm     93 % 0 mm 190.0 W/m2 CLR
08:34 -14.8 °C -15.3 °C 34750.5 hPa Calm     93 % 0 mm 207.0 W/m2 CLR
08:39 -14.6 °C -15.2 °C 34740.4 hPa Calm     93 % 0 mm 225.0 W/m2 CLR
08:44 -14.4 °C -15.1 °C 34740.4 hPa Calm     92 % 0 mm 241.0 W/m2 CLR
08:49 -14.3 °C -14.9 °C 34740.4 hPa Calm     92 % 0 mm 258.0 W/m2 CLR
08:54 -14.1 °C -14.7 °C 34740.4 hPa Calm     92 % 0 mm 272.0 W/m2 CLR
08:59 -13.8 °C -14.6 °C 34740.4 hPa Calm     91 % 0 mm 290.0 W/m2 CLR
09:04 -13.7 °C -14.6 °C 34740.4 hPa Calm     90 % 0 mm 306.0 W/m2 CLR
09:09 -13.4 °C -14.3 °C 34740.4 hPa Calm     90 % 0 mm 320.0 W/m2 CLR
09:14 -13.2 °C -14.2 °C 34740.4 hPa Calm     89 % 0 mm 334.0 W/m2 CLR
09:19 -12.9 °C -14 °C 34740.4 hPa Calm     88 % 0 mm 352.0 W/m2 CLR
09:24 -12.8 °C -14.1 °C 34726.8 hPa Calm     85 % 0 mm 366.0 W/m2 CLR
09:29 -12.7 °C -14.3 °C 34740.4 hPa Calm     82 % 0 mm 381.0 W/m2 CLR
09:35 -12.6 °C -14.2 °C 34726.8 hPa Calm     82 % 0 mm 399.0 W/m2 CLR
09:40 -12.3 °C -14.1 °C 34726.8 hPa Calm     80 % 0 mm 411.0 W/m2 CLR
09:45 -12 °C -13.9 °C 34726.8 hPa Calm     79 % 0 mm 425.0 W/m2 CLR
09:50 -11.7 °C -13.7 °C 34726.8 hPa Calm     79 % 0 mm 439.0 W/m2 CLR
09:55 -11.4 °C -13.7 °C 34726.8 hPa Calm     76 % 0 mm 452.0 W/m2 CLR
10:00 -11.2 °C -13.7 °C 34726.8 hPa Calm     74 % 0 mm 471.0 W/m2 CLR
10:05 -11.1 °C -13.7 °C 34716.7 hPa Calm     73 % 0 mm 482.0 W/m2 CLR
10:10 -10.9 °C -13.6 °C 34716.7 hPa Calm     72 % 0 mm 496.0 W/m2 CLR
10:15 -10.7 °C -13.5 °C 34716.7 hPa Calm     71 % 0 mm 510.0 W/m2 CLR
10:20 -10.5 °C -13.4 °C 34716.7 hPa Calm     71 % 0 mm 524.0 W/m2 CLR
10:25 -10.3 °C -13.5 °C 34716.7 hPa Calm     68 % 0 mm 536.0 W/m2 CLR
10:30 -10.1 °C -13.2 °C 34716.7 hPa Calm     69 % 0 mm 548.0 W/m2 CLR
10:35 -9.9 °C -13.1 °C 34716.7 hPa Calm     69 % 0 mm 557.0 W/m2 CLR
10:40 -9.8 °C -13.1 °C 34716.7 hPa Calm     68 % 0 mm 571.0 W/m2 CLR
10:45 -9.7 °C -13.1 °C 34716.7 hPa Calm     67 % 0 mm 584.0 W/m2 CLR
10:50 -9.7 °C -13.2 °C 34716.7 hPa Calm     66 % 0 mm 598.0 W/m2 CLR
10:55 -9.5 °C -13 °C 34716.7 hPa Calm     66 % 0 mm 606.0 W/m2 CLR
11:00 -9.3 °C -12.9 °C 34716.7 hPa Calm     66 % 0 mm 617.0 W/m2 CLR
11:05 -9.2 °C -13.2 °C 34703.1 hPa East 7.7 km/h 7.7 km/h 62 % 0 mm 628.0 W/m2 CLR
11:10 -9.2 °C -13.3 °C 34703.1 hPa ENE 12.9 km/h 12.9 km/h 61 % 0 mm 642.0 W/m2 CLR
11:15 -9.1 °C -13.8 °C 34703.1 hPa East 9 km/h 9 km/h 57 % 0 mm 647.0 W/m2 CLR
11:20 -9 °C -13.4 °C 34703.1 hPa ENE 9 km/h   59 % 0 mm 656.0 W/m2 CLR
11:25 -8.8 °C -13.7 °C 34703.1 hPa ENE 5.1 km/h   56 % 0 mm 666.0 W/m2 CLR
11:30 -8.7 °C -13.8 °C 34703.1 hPa ENE 7.7 km/h 7.7 km/h 55 % 0 mm 675.0 W/m2 CLR
11:35 -8.7 °C -14 °C 34703.1 hPa ENE 15 km/h 15 km/h 53 % 0 mm 682.0 W/m2 CLR
11:40 -8.7 °C -14.2 °C 34703.1 hPa ENE 11.9 km/h 11.9 km/h 52 % 0 mm 693.0 W/m2 CLR
11:45 -8.7 °C -14.2 °C 34703.1 hPa ENE 9 km/h 9 km/h 52 % 0 mm 700.0 W/m2 CLR
11:50 -8.6 °C -14.1 °C 34693 hPa East 10.3 km/h 10.3 km/h 52 % 0 mm 707.0 W/m2 CLR
11:55 -8.5 °C -14.2 °C 34703.1 hPa ENE 9 km/h 9 km/h 51 % 0 mm 712.0 W/m2 CLR
12:00 -8.4 °C -14.3 °C 34693 hPa ENE 9 km/h 9 km/h 49 % 0 mm 717.0 W/m2 CLR
12:05 -8.3 °C -14.1 °C 34693 hPa ENE 11.9 km/h 11.9 km/h 50 % 0 mm 724.0 W/m2 CLR
12:10 -8.3 °C -15.5 °C 34693 hPa Calm     42 % 0 mm 728.0 W/m2 CLR
12:15 -8.2 °C -15.7 °C 34693 hPa ENE 17.9 km/h 17.9 km/h 41 % 0 mm 737.0 W/m2 CLR
12:20 -8.2 °C -16 °C 34693 hPa NE 9 km/h 9 km/h 39 % 0 mm 738.0 W/m2 CLR
12:25 -8 °C -16.5 °C 34682.8 hPa Calm     36 % 0 mm 742.0 W/m2 CLR
12:30 -7.9 °C -15.4 °C 34682.8 hPa NNE 11.9 km/h 11.9 km/h 41 % 0 mm 733.0 W/m2 CLR
12:35 -7.9 °C -15.2 °C 34682.8 hPa ENE 11.9 km/h 11.9 km/h 42 % 0 mm 747.0 W/m2 CLR
12:40 -7.8 °C -14 °C 34682.8 hPa ENE 23.8 km/h 23.8 km/h 48 % 0 mm 751.0 W/m2 CLR
12:45 -7.7 °C -14.5 °C 34682.8 hPa NE 17.9 km/h 17.9 km/h 45 % 0 mm 751.0 W/m2 CLR
12:50 -7.7 °C -14.5 °C 34682.8 hPa NE 26.9 km/h 26.9 km/h 45 % 0 mm 752.0 W/m2 CLR
12:55 -7.7 °C -14.6 °C 34682.8 hPa ENE 15 km/h 15 km/h 44 % 0 mm 754.0 W/m2 CLR
13:00 -7.7 °C -14.9 °C 34669.3 hPa ENE 15 km/h 15 km/h 42 % 0 mm 756.0 W/m2 CLR
13:05 -7.6 °C -14.7 °C 34669.3 hPa ENE 20.9 km/h 20.9 km/h 43 % 0 mm 754.0 W/m2 CLR
13:10 -7.5 °C -14.4 °C 34669.3 hPa ENE 11.9 km/h 11.9 km/h 44 % 0 mm 756.0 W/m2 CLR
13:15 -7.4 °C -14.7 °C 34669.3 hPa NE 18.2 km/h 18.2 km/h 42 % 0 mm 712.0 W/m2 CLR
13:20 -7.4 °C -14.7 °C 34669.3 hPa NE 9 km/h 9 km/h 42 % 0 mm 754.0 W/m2 CLR
13:25 -7.3 °C -14.7 °C 34659.1 hPa NE 20.9 km/h 20.9 km/h 42 % 0 mm 752.0 W/m2 CLR
13:30 -7.3 °C -14.7 °C 34659.1 hPa ENE 18.2 km/h 18.2 km/h 42 % 0 mm 752.0 W/m2 CLR
13:31 -7.3 °C -14.4 °C 34659.1 hPa NE 20.8 km/h 20.8 km/h 43 % 0 mm 752.0 W/m2 CLR
13:36 -7.2 °C -14.2 °C 34659.1 hPa ENE 11.9 km/h 11.9 km/h 44 % 0 mm 717.0 W/m2 CLR
13:41 -7.1 °C -13.9 °C 34659.1 hPa NE 20.9 km/h 20.9 km/h 45 % 0 mm 744.0 W/m2 CLR
13:46 -7 °C -13.8 °C 34645.6 hPa NE 15.6 km/h 15.6 km/h 45 % 0 mm 740.0 W/m2 CLR
13:51 -6.9 °C -14.1 °C 34645.6 hPa NE 20.9 km/h 20.9 km/h 43 % 0 mm 740.0 W/m2 CLR
13:56 -6.9 °C -14.1 °C 34645.6 hPa NE 26.9 km/h 26.9 km/h 43 % 0 mm 733.0 W/m2 CLR
14:01 -6.8 °C -13.8 °C 34635.4 hPa ENE 20.9 km/h 20.9 km/h 44 % 0 mm 728.0 W/m2 CLR
14:06 -6.8 °C -13.8 °C 34635.4 hPa NNE 17.9 km/h 17.9 km/h 44 % 0 mm 724.0 W/m2 CLR
14:11 -6.8 °C -14.1 °C 34635.4 hPa ENE 35.7 km/h 35.7 km/h 42 % 0 mm 717.0 W/m2 CLR
14:16 -6.7 °C -14.5 °C 34635.4 hPa SE 9 km/h   40 % 0 mm 707.0 W/m2 CLR
14:21 -6.6 °C -14.3 °C 34625.2 hPa Calm     40 % 0 mm 705.0 W/m2 CLR
14:26 -6.4 °C -14.3 °C 34625.2 hPa ENE 9 km/h 9 km/h 40 % 0 mm 700.0 W/m2 CLR
14:31 -6.3 °C -13.9 °C 34625.2 hPa NNE 20.9 km/h 20.9 km/h 41 % 0 mm 693.0 W/m2 CLR
14:36 -6.3 °C -14.8 °C 34625.2 hPa NE 23.8 km/h 23.8 km/h 37 % 0 mm 657.0 W/m2 CLR
14:41 -6.3 °C -15.1 °C 34625.2 hPa ENE 15 km/h 15 km/h 36 % 0 mm 679.0 W/m2 CLR
14:46 -6.3 °C -14.1 °C 34625.2 hPa NE 17.9 km/h 17.9 km/h 40 % 0 mm 671.0 W/m2 CLR
14:51 -6.3 °C -14.7 °C 34611.7 hPa SE 11.9 km/h 11.9 km/h 37 % 0 mm 663.0 W/m2 CLR
14:56 -6.2 °C -15.3 °C 34611.7 hPa ESE 17.9 km/h 17.9 km/h 34 % 0 mm 659.0 W/m2 CLR
15:01 -6.2 °C -15.6 °C 34611.7 hPa ENE 17.9 km/h 17.9 km/h 33 % 0 mm 650.0 W/m2 CLR
15:06 -6.2 °C -15.5 °C 34611.7 hPa SE 12.9 km/h 12.9 km/h 33 % 0 mm 640.0 W/m2 CLR
15:11 -6.2 °C -16.1 °C 34611.7 hPa SSE 26.9 km/h 26.9 km/h 31 % 0 mm 631.0 W/m2 CLR
15:16 -6.2 °C -15.9 °C 34611.7 hPa ESE 20.9 km/h 20.9 km/h 32 % 0 mm 621.0 W/m2 CLR
15:21 -6.2 °C -15.6 °C 34601.5 hPa East 10.3 km/h 10.3 km/h 33 % 0 mm 610.0 W/m2 CLR
15:26 -6.2 °C -15.8 °C 34611.7 hPa East 15 km/h 15 km/h 32 % 0 mm 594.0 W/m2 CLR
15:31 -6.1 °C -15.7 °C 34601.5 hPa ENE 26.9 km/h 26.9 km/h 32 % 0 mm 585.0 W/m2 CLR
15:36 -6.1 °C -15.7 °C 34601.5 hPa ESE 23.8 km/h 23.8 km/h 32 % 0 mm 571.0 W/m2 CLR
15:41 -6.1 °C -16 °C 34601.5 hPa ESE 29.8 km/h 29.8 km/h 31 % 0 mm 555.0 W/m2 CLR
15:46 -6.2 °C -16.3 °C 34601.5 hPa ESE 32.8 km/h 32.8 km/h 30 % 0 mm 548.0 W/m2 CLR
15:51 -6.3 °C -16.4 °C 34601.5 hPa ESE 29.8 km/h 29.8 km/h 30 % 0 mm 536.0 W/m2 CLR
15:56 -6.3 °C -16.2 °C 34601.5 hPa East 20.9 km/h 20.9 km/h 31 % 0 mm 522.0 W/m2 CLR
16:01 -6.2 °C -16 °C 34601.5 hPa East 20.9 km/h 20.9 km/h 31 % 0 mm 512.0 W/m2 CLR
16:06 -6.2 °C -16.8 °C 34591.4 hPa ESE 38.8 km/h 38.8 km/h 28 % 0 mm 501.0 W/m2 CLR
16:11 -6.2 °C -16.9 °C 34601.5 hPa ESE 31.1 km/h 31.1 km/h 28 % 0 mm 485.0 W/m2 CLR
16:17 -6.3 °C -17.2 °C 34591.4 hPa ESE 35.7 km/h 35.7 km/h 27 % 0 mm 475.0 W/m2 CLR
16:22 -6.2 °C -16.6 °C 34591.4 hPa ESE 35.7 km/h 35.7 km/h 29 % 0 mm 461.0 W/m2 CLR
16:27 -6.3 °C -16.4 °C 34591.4 hPa ESE 31.1 km/h 31.1 km/h 30 % 0 mm 448.0 W/m2 CLR
16:32 -6.3 °C -16.4 °C 34591.4 hPa ESE 32.8 km/h 32.8 km/h 30 % 0 mm 432.0 W/m2 CLR
16:36 -6.3 °C -16.2 °C 34591.4 hPa SE 29.8 km/h 29.8 km/h 31 % 0 mm 418.0 W/m2 CLR
16:42 -6.4 °C -16 °C 34591.4 hPa SE 41.7 km/h 41.7 km/h 32 % 0 mm 404.0 W/m2 CLR
16:47 -6.4 °C -16 °C 34591.4 hPa SE 36.2 km/h 36.2 km/h 32 % 0 mm 392.0 W/m2 CLR
16:52 -6.4 °C -16 °C 34591.4 hPa East 38.8 km/h 38.8 km/h 32 % 0 mm 374.0 W/m2 CLR
16:57 -6.5 °C -16.3 °C 34591.4 hPa ESE 44.7 km/h 44.7 km/h 31 % 0 mm 362.0 W/m2 CLR
17:02 -6.6 °C -16.3 °C 34591.4 hPa ESE 36.2 km/h 36.2 km/h 31 % 0 mm 345.0 W/m2 CLR
17:07 -6.6 °C -16.1 °C 34591.4 hPa ESE 29.8 km/h 29.8 km/h 32 % 0 mm 330.0 W/m2 CLR
17:12 -6.6 °C -15.9 °C 34591.4 hPa ESE 38.8 km/h 38.8 km/h 33 % 0 mm 311.0 W/m2 CLR
17:17 -6.7 °C -16 °C 34591.4 hPa ESE 23.8 km/h 23.8 km/h 33 % 0 mm 297.0 W/m2 CLR
17:18 -6.7 °C -16 °C 34591.4 hPa SE 35.7 km/h 35.7 km/h 33 % 0 mm 294.0 W/m2 CLR
17:23 -6.7 °C -16.6 °C 34591.4 hPa ESE 38.8 km/h 38.8 km/h 31 % 0 mm 279.0 W/m2 CLR
17:28 -6.8 °C -16.3 °C 34591.4 hPa ESE 29.8 km/h 29.8 km/h 32 % 0 mm 264.0 W/m2 CLR
17:33 -6.8 °C -16.6 °C 34591.4 hPa ESE 32.8 km/h 32.8 km/h 31 % 0 mm 248.0 W/m2 CLR
17:38 -6.8 °C -16.6 °C 34591.4 hPa SSE 26.9 km/h 26.9 km/h 31 % 0 mm 227.0 W/m2 CLR
17:43 -6.8 °C -16.3 °C 34591.4 hPa ESE 15.6 km/h 15.6 km/h 32 % 0 mm 209.0 W/m2 CLR
17:44 -6.8 °C -16.3 °C 34591.4 hPa ESE 25.9 km/h 25.9 km/h 32 % 0 mm 204.0 W/m2 CLR
17:49 -6.9 °C -17.2 °C 34591.4 hPa ESE 29.8 km/h 29.8 km/h 29 % 0 mm 186.0 W/m2 CLR
17:54 -7 °C -17.1 °C 34591.4 hPa SE 29.8 km/h 29.8 km/h 30 % 0 mm 169.0 W/m2 CLR
17:59 -7.1 °C -16.8 °C 34591.4 hPa ESE 29.8 km/h 29.8 km/h 31 % 0 mm 148.0 W/m2 CLR
18:04 -7.1 °C -16.8 °C 34591.4 hPa SE 26.9 km/h 26.9 km/h 31 % 0 mm 128.0 W/m2 CLR
18:09 -7.2 °C -16.9 °C 34591.4 hPa SE 29.8 km/h 29.8 km/h 31 % 0 mm 113.0 W/m2 CLR
18:14 -7.2 °C -16.9 °C 34591.4 hPa ESE 20.9 km/h 20.9 km/h 31 % 0 mm 97.0 W/m2 CLR
18:19 -7.3 °C -17 °C 34591.4 hPa ESE 31.1 km/h 31.1 km/h 31 % 0 mm 77.0 W/m2 FEW
18:24 -7.3 °C -17.1 °C 34591.4 hPa ESE 25.9 km/h 25.9 km/h 31 % 0 mm 54.0 W/m2 SCT
18:29 -7.4 °C -16.9 °C 34591.4 hPa SE 26.9 km/h 26.9 km/h 32 % 0 mm 46.0 W/m2 SCT
18:34 -7.5 °C -16.9 °C 34591.4 hPa ESE 15 km/h 15 km/h 32 % 0 mm 37.0 W/m2 BKN
18:39 -7.6 °C -17 °C 34591.4 hPa Calm     32 % 0 mm 26.0 W/m2 BKN
18:44 -7.7 °C -16.8 °C 34601.5 hPa Calm     33 % 0 mm 16.0 W/m2 BKN
18:49 -7.8 °C -17 °C 34601.5 hPa SSE 9 km/h 9 km/h 33 % 0 mm 12.0 W/m2 BKN
18:54 -7.9 °C -16.8 °C 34601.5 hPa SSE 9 km/h 9 km/h 34 % 0 mm 11.0 W/m2 BKN
18:59 -8 °C -16.7 °C 34601.5 hPa South 12.9 km/h 12.9 km/h 35 % 0 mm 9.0 W/m2 BKN
19:04 -8.1 °C -16.8 °C 34601.5 hPa SSE 12.9 km/h 12.9 km/h 35 % 0 mm 5.0 W/m2 BKN
19:09 -8.2 °C -16.6 °C 34601.5 hPa SSE 15 km/h 15 km/h 36 % 0 mm 0.0 W/m2 OVC
19:14 -8.2 °C -16.7 °C 34611.7 hPa SE 17.9 km/h 17.9 km/h 36 % 0 mm 0.0 W/m2 OVC
19:19 -8.3 °C -16.6 °C 34611.7 hPa SE 18.2 km/h 18.2 km/h 37 % 0 mm 0.0 W/m2 CLR
19:24 -8.4 °C -16.4 °C 34611.7 hPa SE 11.9 km/h 11.9 km/h 38 % 0 mm 0.0 W/m2 CLR
19:29 -8.6 °C -16.3 °C 34611.7 hPa SSE 11.9 km/h 11.9 km/h 39 % 0 mm 0.0 W/m2 CLR
19:34 -8.6 °C -16.2 °C 34611.7 hPa Calm     40 % 0 mm 0.0 W/m2 CLR
19:39 -8.7 °C -15.9 °C 34611.7 hPa SSE 15 km/h 15 km/h 42 % 0 mm 0.0 W/m2 CLR
19:44 -8.8 °C -15.8 °C 34611.7 hPa SSE 18.2 km/h 18.2 km/h 43 % 0 mm 0.0 W/m2 CLR
19:49 -8.9 °C -15.7 °C 34611.7 hPa SSE 18.2 km/h 18.2 km/h 44 % 0 mm 0.0 W/m2 CLR
19:54 -8.9 °C -15.6 °C 34611.7 hPa SSE 20.9 km/h 20.9 km/h 45 % 0 mm 0.0 W/m2 CLR
19:59 -9 °C -15.6 °C 34611.7 hPa SE 20.9 km/h 20.9 km/h 45 % 0 mm 0.0 W/m2 CLR
20:04 -9.1 °C -15.4 °C 34611.7 hPa Calm     47 % 0 mm 0.0 W/m2 CLR
20:09 -9.3 °C -15.3 °C 34625.2 hPa Calm     49 % 0 mm 0.0 W/m2 CLR
20:14 -9.6 °C -15.4 °C 34625.2 hPa Calm     50 % 0 mm 0.0 W/m2 CLR
20:19 -9.9 °C -15.4 °C 34625.2 hPa Calm     51 % 0 mm 0.0 W/m2 CLR
20:24 -10.1 °C -15.6 °C 34625.2 hPa Calm     51 % 0 mm 0.0 W/m2 CLR
20:29 -10.2 °C -15.7 °C 34625.2 hPa Calm     51 % 0 mm 0.0 W/m2 CLR
20:34 -10.2 °C -15.4 °C 34625.2 hPa Calm     53 % 0 mm 0.0 W/m2 CLR
20:39 -10.4 °C -15.6 °C 34625.2 hPa Calm     53 % 0 mm 0.0 W/m2 CLR
20:44 -10.6 °C -15.6 °C 34625.2 hPa Calm     54 % 0 mm 0.0 W/m2 CLR
20:49 -10.7 °C -15.9 °C 34635.4 hPa Calm     53 % 0 mm 0.0 W/m2 CLR
20:54 -10.7 °C -16.1 °C 34635.4 hPa Calm     52 % 0 mm 0.0 W/m2 CLR
20:59 -10.7 °C -16.2 °C 34635.4 hPa Calm     51 % 0 mm 0.0 W/m2 CLR
21:04 -10.7 °C -16.1 °C 34635.4 hPa Calm     52 % 0 mm 0.0 W/m2 CLR
21:09 -10.8 °C -15.4 °C 34635.4 hPa Calm     57 % 0 mm 0.0 W/m2 CLR
21:14 -11 °C -15.1 °C 34635.4 hPa Calm     61 % 0 mm 0.0 W/m2 CLR
21:19 -11.3 °C -15.2 °C 34635.4 hPa Calm     62 % 0 mm 0.0 W/m2 CLR
21:24 -11.6 °C -15.1 °C 34645.6 hPa Calm     65 % 0 mm 0.0 W/m2 CLR
21:29 -11.8 °C -15.2 °C 34645.6 hPa Calm     66 % 0 mm 0.0 W/m2 CLR
21:34 -12.1 °C -15.2 °C 34645.6 hPa Calm     68 % 0 mm 0.0 W/m2 CLR
21:39 -12.2 °C -15.2 °C 34645.6 hPa Calm     69 % 0 mm 0.0 W/m2 CLR
21:44 -12.3 °C -15.2 °C 34645.6 hPa Calm     70 % 0 mm 0.0 W/m2 CLR
21:49 -12.4 °C -15.2 °C 34645.6 hPa Calm     71 % 0 mm 0.0 W/m2 CLR
21:54 -12.6 °C -15.2 °C 34659.1 hPa Calm     72 % 0 mm 0.0 W/m2 CLR
21:59 -12.7 °C -15.3 °C 34659.1 hPa Calm     73 % 0 mm 0.0 W/m2 CLR
22:04 -12.9 °C -15.4 °C 34659.1 hPa Calm     73 % 0 mm 0.0 W/m2 CLR
22:09 -12.9 °C -15.4 °C 34659.1 hPa Calm     74 % 0 mm 0.0 W/m2 CLR
22:14 -13 °C -15.3 °C 34659.1 hPa Calm     75 % 0 mm 0.0 W/m2 CLR
22:19 -13.1 °C -15.5 °C 34659.1 hPa Calm     74 % 0 mm 0.0 W/m2 CLR
22:24 -13.1 °C -15.4 °C 34659.1 hPa Calm     75 % 0 mm 0.0 W/m2 CLR
22:29 -13.2 °C -15.4 °C 34659.1 hPa Calm     75 % 0 mm 0.0 W/m2 CLR
22:34 -13.2 °C -15.4 °C 34659.1 hPa Calm     76 % 0 mm 0.0 W/m2 CLR
22:39 -13.3 °C -15.6 °C 34659.1 hPa Calm     76 % 0 mm 0.0 W/m2 CLR
22:44 -13.4 °C -15.6 °C 34659.1 hPa Calm     76 % 0 mm 0.0 W/m2 CLR
22:49 -13.4 °C -15.5 °C 34659.1 hPa Calm     77 % 0 mm 0.0 W/m2 CLR
22:54 -13.4 °C -15.7 °C 34659.1 hPa Calm     76 % 0 mm 0.0 W/m2 CLR
22:59 -13.5 °C -15.6 °C 34659.1 hPa Calm     77 % 0 mm 0.0 W/m2 CLR
23:04 -13.6 °C -15.6 °C 34659.1 hPa Calm     78 % 0 mm 0.0 W/m2 CLR
23:09 -13.6 °C -15.6 °C 34659.1 hPa Calm     78 % 0 mm 0.0 W/m2 CLR
23:14 -13.7 °C -15.7 °C 34659.1 hPa Calm     78 % 0 mm 0.0 W/m2 CLR
23:19 -13.7 °C -15.6 °C 34659.1 hPa Calm     79 % 0 mm 0.0 W/m2 CLR
23:24 -13.8 °C -15.7 °C 34659.1 hPa Calm     79 % 0 mm 0.0 W/m2 CLR
23:29 -13.9 °C -15.8 °C 34659.1 hPa Calm     79 % 0 mm 0.0 W/m2 CLR
23:34 -13.9 °C -15.7 °C 34659.1 hPa Calm     80 % 0 mm 0.0 W/m2 CLR
23:39 -14 °C -15.8 °C 34659.1 hPa Calm     80 % 0 mm 0.0 W/m2 CLR
23:44 -14.1 °C -15.8 °C 34659.1 hPa Calm     80 % 0 mm 0.0 W/m2 CLR
23:49 -14.1 °C -15.9 °C 34659.1 hPa Calm     80 % 0 mm 0.0 W/m2 CLR
23:54 -14.1 °C -15.8 °C 34659.1 hPa Calm     81 % 0 mm 0.0 W/m2 CLR
23:59 -14.2 °C -15.8 °C 34659.1 hPa Calm     81 % 0 mm 0.0 W/m2 CLR
Lo Temps de Massalio
Compliments of Weather Underground - 1.25 mb